Flag for Brazil Weather past 2 weeks in Brasilia, Distrito Federal, Brazil

Now
59 °F

Clear.


Feels Like: 59 °F
Forecast: 60 / 78 °F
Wind: No wind

Location: Brasilia Aeroporto

Current Time: May 30, 2015 at 5:56:14 AM

Latest Report: May 30, 2015 at 5:00 AM


Visibility: 10 mi

Pressure: 30.07 "Hg

Humidity: 94%

Dew point: 57 °F

Location of BrasiliaLocation

Historic Weather in Brasilia — Graph

°F

Brasilia temperature yesterday

Maximum temperature yesterday: 75 °F (at 1:00 PM)
Minimum temperature yesterday: 63 °F (at 2:00 AM)
Average temperature yesterday: 68 °F

Past Weeks' High & Low Weather Summary

 TemperatureHumidityPressure
High81 °F (May 27, 2:00 PM)100% (May 17, 3:00 AM)30.30 "Hg (May 17, 3:00 AM)
Low54 °F (May 26, 6:00 AM)32% (May 27, 4:00 PM)29.98 "Hg (May 29, 4:00 PM)
Average67 °F72%30.17 "Hg
* Reported May 15 5:00 AM — May 30 5:00 AM, Brasilia, Weather by CustomWeather, © 2015

Note: Actual official high and low records may vary slightly from our data, if they occured in-between our weather recording intervals... More about our weather records

Advertising

Brasilia weather history for previous 24 hours

 ConditionsComfort  
Time TempWeatherWind HumidityBarometerVisibility
5:00 AM
Sat, May 30
59 °FClear.No wind94%30.07 "Hg10 mi
4:00 AM61 °FClear.No wind94%30.07 "Hg10 mi
3:00 AM61 °FClear.3 mph94%30.07 "Hg10 mi
2:00 AM63 °FPassing clouds.No wind88%30.07 "HgN/A
1:00 AM63 °FPassing clouds.No wind88%30.07 "HgN/A
12:00 AM64 °FPassing clouds.No wind88%30.07 "HgN/A
11:00 PM
Fri, May 29
64 °FPassing clouds.2 mph88%30.09 "HgN/A
10:00 PM66 °FPassing clouds.No wind78%30.07 "HgN/A
9:00 PM66 °FPassing clouds.No wind88%30.07 "HgN/A
8:00 PM68 °FPassing clouds.5 mph78%30.04 "HgN/A
7:00 PM70 °FPassing clouds.3 mph73%30.04 "HgN/A
6:00 PM68 °FScattered showers. Passing clouds.7 mph78%30.01 "HgN/A
5:00 PM73 °FScattered showers. Partly sunny.5 mph65%30.01 "HgN/A
4:00 PM75 °FPartly sunny.5 mph57%29.98 "HgN/A
3:00 PM75 °FPartly sunny.6 mph57%30.01 "HgN/A
2:00 PM75 °FPartly sunny.7 mph57%30.01 "HgN/A
1:00 PM75 °FScattered clouds.5 mph54%30.07 "HgN/A
12:00 PM73 °FPassing clouds.6 mph57%30.09 "HgN/A
11:00 AM72 °FPassing clouds.8 mph57%30.12 "HgN/A
10:00 AM70 °FSunny.8 mph57%30.15 "Hg10 mi
9:00 AM66 °FPartly sunny.9 mph60%30.15 "HgN/A
8:00 AM63 °FPartly sunny.8 mph73%30.12 "HgN/A
7:00 AM63 °FPartly sunny.7 mph77%30.09 "HgN/A
6:00 AM63 °FPassing clouds.3 mph77%30.09 "HgN/A
5:00 AM63 °FPassing clouds.6 mph77%30.07 "HgN/A
Weather by CustomWeather, © 2015

See weather overviewHow to use our weather pages